This is the latest recevied weather packets stored in our database for station/object VE3GSI. If no packets are shown the sender has not sent any weather packets the latest 10 day(s).
| Time | Temp. | Humidity | Pressure | Rain* | Wind** | Luminosity | Snow |
|---|---|---|---|---|---|---|---|
| 1777853764 | 10° C | 62% | 1006.1 hPa | 0 mm | - | - | - |
| 1777852565 | 10° C | 62% | 1006 hPa | 0 mm | - | - | - |
| 1777851364 | 10.56° C | 62% | 1006 hPa | 0 mm | - | - | - |
| 1777848364 | 11.67° C | 56% | 1006.3 hPa | 0 mm | - | - | - |
| 1777847165 | 12.22° C | 51% | 1006.5 hPa | 0 mm | - | - | - |
| 1777845365 | 13.33° C | 40% | 1006.2 hPa | 0 mm | - | - | - |
| 1777842965 | 13.89° C | 38% | 1006.1 hPa | 0 mm | - | - | - |
| 1777839365 | 13.33° C | 43% | 1006.7 hPa | 0 mm | - | - | - |
| 1777838165 | 13.89° C | 43% | 1006.9 hPa | 0 mm | - | - | - |
| 1777836365 | 13.33° C | 43% | 1007.3 hPa | 0 mm | - | - | - |
| 1777835165 | 13.89° C | 45% | 1007.3 hPa | 0 mm | - | - | - |
| 1777826165 | 12.78° C | 35% | 1009 hPa | 0 mm | - | - | - |
| 1777825565 | 12.22° C | 36% | 1009.2 hPa | 0 mm | - | - | - |
| 1777824965 | 12.78° C | 38% | 1009.2 hPa | 0 mm | - | - | - |
| 1777824365 | 12.22° C | 37% | 1009.5 hPa | 0 mm | - | - | - |
| 1777819565 | 10.56° C | 42% | 1010.6 hPa | 0 mm | - | - | - |
| 1777809964 | 3.33° C | 78% | 1011.4 hPa | 0 mm | - | - | - |
| 1777800964 | -1.11° C | 87% | 1011 hPa | 0 mm | - | - | - |
| 1777800365 | -1.11° C | 86% | 1011.1 hPa | 0 mm | - | - | - |
| 1777798564 | -0.56° C | 83% | 1011.2 hPa | 0 mm | - | - | - |
| 1777796165 | 1.11° C | 78% | 1011.3 hPa | 0 mm | - | - | - |
| 1777793764 | 3.33° C | 71% | 1011.3 hPa | 0 mm | - | - | - |
| 1777787764 | 3.33° C | 74% | 1011.5 hPa | 0 mm | - | - | - |
| 1777785964 | 2.78° C | 78% | 1011.6 hPa | 0 mm | - | - | - |
| 1777780565 | 2.78° C | 84% | 1011.9 hPa | 0 mm | - | - | - |
* Rain latest hour (hover to see other rain measurements)
** Current wind speed in m/s (hover to see current wind gust speed)